Alma, GA

4:47 PM EST on January 17, 2017 (GMT -0500)
Bacon County

Weather History for KAMG - January, 2013

Change the Weather History Date:

Tuesday, January 15, 2013

  Actual Average Record
Temperature  
Mean Temperature 67 °F 50 °F  
Max Temperature 81 °F 61 °F 81 °F (2013)
Min Temperature 52 °F 40 °F 16 °F (1964)
Degree Days  
Heating Degree Days 0 15  
Month to date heating degree days 97 225  
Since 1 July heating degree days 691 865  
Cooling Degree Days 2 0  
Month to date cooling degree days 14 0  
Year to date cooling degree days 14 0  
Growing Degree Days 16 (Base 50)    
Moisture  
Dew Point 56 °F    
Average Humidity 73    
Maximum Humidity 100    
Minimum Humidity 45    
Precipitation  
Precipitation 0.00 in 0.14 in 2.16 in (1966)
Month to date precipitation 0.18 1.96  
Year to date precipitation 0.18 1.96  
Snow  
Snow 0.00 in 0.00 in 0.00 in ()
Month to date snowfall 0.0 0.0  
Since 1 July snowfall 0.0 0.1  
Snow Depth 0.00 in    
Sea Level Pressure  
Sea Level Pressure 30.10 in    
Wind  
Wind Speed 4 mph (South)    
Max Wind Speed 15 mph    
Max Gust Speed 22 mph    
Visibility 6 miles    
Events Fog    
T = Trace of Precipitation, MM = Missing Value Source: NWS Daily Summary

Daily Weather History Graph

Daily Weather History Graph

Search for Another Location

Airport or City:

Trip Planner

Search our weather history database for the weather conditions in past years. The results will help you decide how hot, cold, wet, or windy it might be!

Date:

Astronomy

Jan. 15, 2013 Rise Set
Actual Time 7:29 AM EST 5:49 PM EST
Civil Twilight 7:03 AM EST 6:15 PM EST
Nautical Twilight 6:33 AM EST 6:45 PM EST
Astronomical Twilight 6:04 AM EST 7:14 PM EST
Moon 9:54 AM EST (1/15) 10:16 PM EST (1/15)
Length of Visible Light 11h 12m
Length of Day
10h 19m
Waxing Crescent, 19% of the Moon is Illuminated
Jan 15
Waxing Crescent
Jan 18
First Quarter
Jan 26
Full
Feb 3
Last Quarter
Feb 10
New

Hourly Weather History & Observations

Time (EST) Temp. Heat Index Dew Point Humidity Pressure Visibility Wind Dir Wind Speed Gust Speed Precip Events Conditions
12:53 AM 55.9 °F - 55.0 °F 97% 30.14 in 2.0 mi Calm Calm - N/A   Clear
12:57 AM 55.4 °F - 53.6 °F 94% 30.15 in 0.8 mi Calm Calm - N/A   Clear
1:13 AM 55.4 °F - 53.6 °F 94% 30.15 in 1.2 mi ESE 3.5 mph - N/A   Partly Cloudy
1:53 AM 57.0 °F - 55.9 °F 96% 30.14 in 6.0 mi Calm Calm - N/A   Clear
2:53 AM 59.0 °F - 55.9 °F 90% 30.14 in 7.0 mi Calm Calm - N/A   Clear
3:53 AM 57.0 °F - 55.0 °F 93% 30.12 in 3.0 mi Calm Calm - N/A   Partly Cloudy
3:58 AM 55.4 °F - 55.4 °F 100% 30.12 in 0.8 mi Calm Calm - N/A   Partly Cloudy
4:15 AM 55.4 °F - 53.6 °F 94% 30.12 in 0.2 mi Calm Calm - N/A Fog Fog
4:26 AM 55.4 °F - 53.6 °F 94% 30.12 in 2.0 mi Calm Calm - N/A   Partly Cloudy
4:31 AM 55.4 °F - 53.6 °F 94% 30.12 in 1.0 mi Calm Calm - N/A   Mist
4:38 AM 55.4 °F - 53.6 °F 94% 30.12 in 0.5 mi Calm Calm - N/A Fog Fog
4:53 AM 55.0 °F - 53.1 °F 93% 30.11 in 0.5 mi Calm Calm - N/A Fog Fog
5:29 AM 51.8 °F - 51.8 °F 100% 30.11 in 1.0 mi Calm Calm - N/A   Clear
5:48 AM 55.4 °F - 53.6 °F 94% 30.11 in 3.0 mi Calm Calm - N/A   Clear
6:06 AM 53.6 °F - 51.8 °F 94% 30.11 in 0.8 mi Calm Calm - N/A   Clear
6:33 AM 53.6 °F - 53.6 °F 100% 30.11 in 2.5 mi Calm Calm - N/A   Clear
6:40 AM 53.6 °F - 53.6 °F 100% 30.11 in 5.0 mi Calm Calm - N/A   Clear
6:53 AM 55.0 °F - 53.1 °F 93% 30.11 in 4.0 mi SSE 3.5 mph - N/A   Clear
7:53 AM 55.9 °F - 55.0 °F 97% 30.13 in 3.0 mi Calm Calm - N/A   Clear
8:09 AM 57.2 °F - 55.4 °F 94% 30.14 in 1.8 mi Calm Calm - N/A   Clear
8:22 AM 59.0 °F - 57.2 °F 94% 30.14 in 2.5 mi Calm Calm - N/A   Clear
8:30 AM 60.8 °F - 57.2 °F 88% 30.14 in 4.0 mi Calm Calm - N/A   Clear
8:53 AM 62.1 °F - 57.9 °F 86% 30.14 in 7.0 mi Calm Calm - N/A   Clear
9:53 AM 69.1 °F - 59.0 °F 70% 30.15 in 10.0 mi SSE 3.5 mph - N/A   Clear
10:53 AM 73.9 °F - 57.9 °F 57% 30.13 in 10.0 mi South 6.9 mph - N/A   Clear
11:53 AM 77.0 °F - 59.0 °F 54% 30.10 in 10.0 mi SSW 9.2 mph - N/A   Clear
12:53 PM 80.1 °F 80.6 °F 57.9 °F 47% 30.07 in 10.0 mi SW 12.7 mph 20.7 mph N/A   Clear
1:53 PM 81.0 °F 81.0 °F 57.0 °F 44% 30.06 in 10.0 mi SSW 11.5 mph - N/A   Partly Cloudy
2:53 PM 80.1 °F 80.4 °F 57.0 °F 45% 30.04 in 10.0 mi South 11.5 mph - N/A   Partly Cloudy
3:53 PM 79.0 °F - 57.0 °F 47% 30.04 in 10.0 mi South 10.4 mph - N/A   Partly Cloudy
4:53 PM 78.1 °F - 57.0 °F 48% 30.05 in 10.0 mi South 8.1 mph - N/A   Partly Cloudy
5:53 PM 73.9 °F - 59.0 °F 59% 30.06 in 10.0 mi Calm Calm - N/A   Overcast
6:53 PM 69.1 °F - 59.0 °F 70% 30.06 in 10.0 mi Calm Calm - N/A   Overcast
7:53 PM 70.0 °F - 59.0 °F 68% 30.06 in 10.0 mi Calm Calm - N/A   Overcast
8:53 PM 69.1 °F - 59.0 °F 70% 30.05 in 10.0 mi South 3.5 mph - N/A   Overcast
9:53 PM 66.9 °F - 57.9 °F 73% 30.05 in 10.0 mi South 3.5 mph - N/A   Scattered Clouds
10:53 PM 64.0 °F - 57.9 °F 80% 30.05 in 10.0 mi Calm Calm - N/A   Mostly Cloudy
11:53 PM 62.1 °F - 57.0 °F 84% 30.05 in 10.0 mi South 3.5 mph - N/A   Scattered Clouds